Regional Weather Roundup
Issued by NWS Sioux Falls, SD

Home | Current Version | Previous Version | Text Only | Print | Product List | Glossary On
Versions: 1 2 3 4 5 6 7 8 9 10 11 12 13 14 15 16 17 18 19 20 21 22 23 24 25 26 27 28 29 30 31 32 33 34 35 36 37 38 39 40 41 42 43 44 45 46 47 48 49 50
000
ASUS43 KFSD 240902
RWRFSD

WEATHER ROUNDUP FOR SE SOUTH DAKOTA/SW MINNESOTA/NW IOWA
NATIONAL WEATHER SERVICE SIOUX FALLS SD
400 AM CDT THU AUG 24 2017

NOTE: "FAIR" INDICATES FEW OR NO CLOUDS BELOW 12,000 FEET WITH NO
SIGNIFICANT WEATHER AND OR OBSTRUCTIONS TO VISIBILITY.


SDZ038>040-050-052>070-241000-
SOUTHEAST SOUTH DAKOTA

CITY           SKY/WX    TMP DP  RH WIND       PRES   REMARKS
BROOKINGS      PTCLDY    64  59  83 E14       30.00S
CHAMBERLAIN    CLOUDY    63  62  97 NE5       29.88S
HURON          CLEAR     63  60  90 E7        29.92S
MADISON        CLOUDY    63  63 100 SE6       29.99R
MITCHELL       PTCLDY    64  60  87 SE9       29.92F
SIOUX FALLS    CLOUDY    67  59  75 S12       29.98S
WINNER         FAIR      68  62  81 NW7       29.91S
YANKTON        TSTM      65  58  78 E10G17    29.99R
$$

MNZ071-072-080-081-089-090-097-098-241000-
SOUTHWEST MINNESOTA

CITY           SKY/WX    TMP DP  RH WIND       PRES   REMARKS
FAIRMONT       LGT RAIN  60  58  92 S5        30.09R
JACKSON        RAIN      61  61 100 CALM      30.07F
LUVERNE        CLOUDY    61  57  88 E6        30.02S
MARSHALL       CLOUDY    62  58  86 SE8       30.04S
MONTEVIDEO     CLEAR     57  54  88 SE13G20   30.05S
PIPESTONE      CLOUDY    64  57  77 SE7       30.02F
REDWOOD FALLS  CLEAR     58  53  84 E8        30.06R
TRACY          CLOUDY    63  61  93 SE5       30.04F
WINDOM         RAIN      63  61  94 E6        30.07F
WORTHINGTON    CLOUDY    62  60  93 E8        30.06R
$$

IAZ001>003-012>014-020>022-031-032-NEZ013-014-SDZ071-241000-
NORTHWEST IOWA

CITY           SKY/WX    TMP DP  RH WIND       PRES   REMARKS
CHEROKEE       CLOUDY    64  61  93 S6        30.02F
DENISON        CLOUDY    64  59  82 S9        30.05F
ESTHERVILLE    CLOUDY    61  61 100 NE6       30.06R
ORANGE CITY    MOCLDY    64  61  88 SE3       30.02S
SHELDON        CLOUDY    63  61  94 SE8       30.01R
SIOUX CITY     CLEAR     62  60  93 SE10      29.99F
SPENCER        CLOUDY    64  60  87 E7        30.06R
STORM LAKE     CLOUDY    63  59  88 S6        30.04S
$$

ABBREVIATIONS USED IN REMARKS
   TC - TEMPERATURE IN CELSIUS
  WCI - WIND CHILL INDEX
   HX - HEAT INDEX
  VSB - VISIBILITY





USA.gov is the U.S. government's official web portal to all federal, state and local government web resources and services.